Temperature
18 18 18 18 18 18 18 18 18 18 18 18 18 18 18 18 18 18 18 18 17 17 17 17 17 17 17 17 17 17 17 17 16 16 16 16 16 15 15 15 15 15 15
18 18 18 18 18 18 18 18 18 18 18 18 18 18 18 18 18 18 18 18 17 18 17 17 17 17 17 17 17 17 16 16 16 16 16 16 16 15 15 15 14 14 15
18 18 18 18 18 18 18 18 18 18 18 18 18 18 18 18 18 18 18 18 18 18 18 18 18 18 17 17 17 17 17 16 16 16 16 16 16 15 15 15 14 14 14
18 18 18 18 18 18 18 18 18 18 18 18 18 19 18 19 19 18 18 18 18 19 18 18 17 18 18 18 18 17 17 17 16 16 16 16 16 15 15 15 14 14 14
18 18 18 18 18 18 18 18 18 18 18 18 18 19 19 19 19 19 19 19 19 19 18 18 17 18 18 18 18 18 17 17 17 16 16 16 16 15 15 15 14 14 14
18 18 18 18 18 18 18 18 18 18 18 18 18 18 19 19 19 19 19 19 19 19 18 18 18 17 17 18 18 18 17 17 17 16 16 16 16 16 15 15 15 14 14
17 17 17 17 18 18 18 18 18 17 18 18 18 18 18 18 19 19 19 19 19 19 18 18 18 18 18 18 18 17 17 16 16 16 16 16 16 16 15 15 15 14 14
17 17 17 18 18 18 18 17 17 17 17 17 17 18 18 18 19 19 19 19 19 18 18 18 18 18 18 18 17 17 17 16 16 16 16 16 16 16 15 15 15 15 14
17 17 17 17 17 17 17 17 17 17 17 17 17 17 17 18 19 19 19 19 18 18 18 18 18 18 18 18 17 17 17 17 16 16 16 16 16 16 15 15 15 15 14
17 17 17 17 17 16 16 16 16 16 16 17 17 18 18 18 18 18 18 18 18 18 18 18 18 18 18 17 17 17 17 17 17 16 16 16 16 15 15 15 15 15 14
17 17 17 16 16 16 16 16 16 16 17 17 17 18 18 18 17 17 17 18 18 18 18 18 18 18 17 17 17 17 17 17 17 17 16 16 16 15 15 15 15 14 14
16 16 16 16 15 15 15 16 16 16 16 17 17 17 17 17 17 17 17 17 17 17 17 17 17 17 17 17 17 17 17 17 17 17 16 16 16 16 15 15 15 14 14
16 15 15 15 15 15 15 15 15 15 15 16 16 16 16 17 17 16 16 16 16 17 17 17 17 18 18 17 17 17 17 17 17 16 16 16 16 16 15 15 14 14 13
15 15 14 14 14 14 14 14 14 14 14 15 15 15 15 16 16 16 16 15 16 16 16 17 17 17 17 17 16 16 17 17 16 16 15 15 15 15 15 14 14 14 13
14 14 14 14 14 14 14 14 14 14 14 14 14 15 15 15 15 15 15 15 15 15 15 16 17 17 16 16 16 16 16 16 15 15 15 15 15 15 14 14 14 13 13
14 14 14 14 14 14 13 13 13 14 14 14 14 14 14 14 14 15 15 15 15 15 15 16 16 16 16 16 16 16 16 15 15 15 15 15 14 14 14 14 13 13 13
13 13 13 13 13 13 13 13 13 14 14 14 14 14 14 14 14 15 15 14 15 15 15 16 16 15 15 16 15 16 16 15 15 15 15 14 14 14 14 14 14 14 14
13 13 13 12 12 13 13 13 13 13 13 13 13 13 13 14 14 14 14 14 14 14 14 15 16 15 15 15 15 15 15 15 15 15 15 15 15 15 15 15 15 14 14
12 13 12 12 12 12 12 12 12 12 12 12 13 13 13 13 13 13 13 14 14 14 14 14 15 15 15 15 15 15 15 15 14 15 15 15 15 15 14 14 14 14 14
12 12 13 13 12 12 12 12 12 12 12 12 12 12 12 12 12 12 13 13 13 13 13 14 14 15 15 15 15 15 14 14 14 14 14 14 14 14 14 14 14 15 15
12 12 13 13 12 12 11 11 12 12 12 12 12 12 12 12 12 12 12 12 13 13 13 13 14 14 15 15 15 15 14 14 14 14 14 14 14 15 15 15 15 15 16
12 12 12 12 12 12 12 12 12 12 11 11 11 11 11 11 11 11 11 11 11 12 12 12 12 13 13 13 14 14 14 14 14 14 14 14 14 15 15 15 16 16 16
12 12 12 12 12 12 12 12 12 12 11 11 11 11 11 11 11 11 11 11 11 11 11 11 12 12 12 12 13 13 13 13 13 14 14 14 14 15 15 15 15 15 16
12 12 12 11 12 12 12 12 12 11 11 11 11 11 11 11 11 11 11 11 11 11 11 11 11 12 12 12 12 12 12 13 13 13 13 13 14 14 14 14 15 15 15
11 11 11 11 11 11 11 11 11 11 11 11 11 11 11 11 11 11 11 11 12 12 12 12 12 12 12 12 12 12 12 12 12 12 12 13 13 13 13 13 14 14 15
11 11 11 11 11 11 11 11 11 11 11 11 11 11 11 11 11 11 11 11 12 12 12 12 12 12 12 12 12 12 12 12 12 12 12 12 12 12 12 12 13 13 13
Wind_Speed
5 5 5 7 10 10 8 7 7 7 7 9 10 10 9 11 13 15 15 18 18 19 21 20 19 17 16 16 16 17 18 19 20 21 23 23 24 24 23 22 20 19 18
6 4 4 4 6 8 10 9 7 6 6 5 7 8 8 9 12 14 15 16 17 18 20 21 19 17 16 16 16 17 18 19 19 19 20 22 23 25 26 24 23 22 20
9 6 5 5 5 8 8 7 7 6 5 6 7 8 6 8 9 11 13 13 15 17 19 21 20 18 17 17 17 18 18 18 19 20 20 21 23 26 28 27 25 24 23
11 7 5 5 7 6 4 5 5 5 6 6 6 6 7 6 9 10 12 12 13 13 15 19 21 20 19 19 19 19 18 18 19 21 21 22 24 27 29 28 28 27 25
7 6 4 5 6 4 4 4 5 5 6 7 7 7 7 8 9 9 9 10 12 13 13 14 19 20 20 20 19 20 20 19 20 19 19 20 23 27 30 29 29 28 27
4 4 3 5 5 5 6 5 7 7 6 7 7 6 6 7 7 8 9 7 9 12 13 13 14 16 20 21 20 20 20 21 21 19 18 18 20 25 30 31 31 30 29
4 3 4 6 6 6 8 8 7 8 7 5 4 4 5 7 8 9 8 7 6 8 11 12 12 12 13 17 19 19 19 20 20 20 19 18 19 22 29 32 32 31 30
5 5 6 7 8 7 9 9 8 6 6 5 5 3 3 4 4 6 6 6 6 5 6 8 10 11 12 12 15 18 18 18 20 21 19 18 18 21 27 32 33 32 32
6 6 7 8 9 8 9 10 9 9 8 6 5 5 5 6 3 3 2 4 4 5 6 4 7 11 12 12 13 15 15 16 17 17 17 15 16 19 24 31 33 33 33
7 8 7 8 8 8 9 9 9 8 8 7 5 6 5 5 3 2 3 2 3 6 6 6 8 8 10 10 11 11 12 13 13 14 16 16 15 17 21 29 33 34 34
6 8 7 7 7 6 8 8 8 9 8 7 6 4 4 4 3 4 3 3 4 4 5 7 7 6 7 8 7 7 9 11 12 14 16 18 17 17 19 28 32 34 34
5 7 7 6 5 4 5 5 6 7 6 5 4 4 4 3 4 4 4 3 4 5 5 6 6 6 5 7 6 6 7 8 10 12 14 16 17 17 20 27 32 34 33
4 5 5 5 5 5 4 3 2 3 3 3 4 3 3 3 2 3 3 2 3 3 3 4 5 4 4 6 5 4 3 5 7 8 8 6 8 14 21 27 31 33 32
4 5 4 4 4 5 5 4 3 3 2 2 3 3 2 3 2 3 3 3 1 2 3 5 2 2 3 5 4 2 2 3 5 5 3 4 7 12 19 24 28 29 29
4 4 4 3 3 4 4 4 3 3 3 2 2 3 3 3 3 2 2 3 3 2 4 4 3 2 3 4 4 4 4 4 5 6 7 8 12 15 18 21 23 25 25
4 4 4 3 3 3 4 3 2 2 2 3 3 4 4 3 3 3 2 1 3 5 5 4 4 4 4 3 5 6 6 7 5 7 9 10 13 15 18 21 22 23 22
5 5 5 4 3 3 3 4 4 3 2 2 2 4 4 5 5 5 4 2 2 3 5 4 3 4 5 4 4 5 7 6 6 8 11 13 16 18 20 22 22 21 20
4 3 4 5 5 4 4 5 5 3 3 2 3 4 4 4 6 4 4 4 3 2 4 5 3 3 5 5 5 5 4 5 6 9 13 15 17 19 21 22 22 21 21
5 4 4 4 4 5 5 5 5 3 4 4 5 5 5 6 6 5 5 5 4 4 3 3 4 3 3 2 3 3 4 3 6 10 13 15 15 15 17 19 19 20 20
5 5 5 5 6 6 7 6 6 7 6 6 6 6 6 5 5 5 5 6 6 6 5 3 3 3 3 2 3 4 3 3 4 4 7 11 15 17 17 18 19 20 21
4 4 5 7 7 7 7 6 5 6 6 6 6 6 7 9 9 6 4 5 6 5 5 4 4 3 2 1 2 3 4 3 2 2 3 4 5 7 11 16 20 21 22
5 5 6 6 7 6 9 10 8 8 8 8 7 6 6 9 10 9 8 7 6 5 5 5 4 4 5 3 1 1 4 4 3 1 3 3 3 4 5 8 14 19 22
4 5 5 6 6 7 10 10 11 8 8 7 7 7 7 9 10 8 9 9 9 10 9 4 4 5 5 6 4 2 1 2 2 1 2 2 3 4 4 6 13 18 21
4 4 5 5 5 7 8 9 10 8 8 7 7 6 7 9 11 9 8 8 8 7 8 5 2 3 3 4 3 2 1 3 3 3 2 2 2 3 3 4 9 13 16
5 4 4 6 7 8 7 8 7 5 5 6 6 6 7 8 12 13 10 9 10 9 8 8 6 6 7 8 6 3 4 4 2 2 2 1 2 2 2 3 5 9 9
5 5 6 7 8 8 11 11 7 4 4 4 6 7 11 11 12 12 7 7 9 7 9 9 8 7 7 7 7 4 2 2 1 2 2 0 1 1 2 2 3 4 4
Wind_Direction
222 226 222 229 228 226 231 231 230 233 237 244 246 244 243 242 243 242 246 250 249 244 243 244 246 246 251 255 256 255 254 253 251 247 243 240 225 211 203 200 200 197 192
213 210 209 210 215 222 230 231 225 226 232 227 239 244 242 245 247 242 240 244 248 244 244 248 246 244 250 256 256 255 254 256 257 255 249 242 230 214 204 200 199 197 194
214 207 214 221 222 224 231 237 231 227 236 234 243 254 258 254 247 243 241 241 244 241 240 246 246 244 248 254 257 258 258 259 260 259 255 245 231 215 203 200 199 198 195
218 212 220 235 247 254 247 239 228 228 241 242 244 251 254 252 246 245 245 245 243 241 240 244 244 241 245 253 258 262 264 263 261 258 255 249 235 217 204 201 199 197 193
218 210 223 237 247 253 253 247 234 223 237 245 246 249 251 249 247 243 242 244 246 244 237 238 239 239 244 251 256 260 263 265 265 263 260 254 241 221 206 203 198 196 189
219 199 213 231 236 245 248 234 234 234 233 240 251 256 252 246 238 236 242 243 246 247 240 232 231 238 245 249 253 257 261 263 266 265 262 258 247 226 208 202 197 193 187
301 272 254 248 238 236 240 232 229 238 240 224 225 263 276 256 242 240 240 244 252 256 248 233 221 224 237 244 249 252 256 262 267 266 261 256 250 231 209 202 196 191 185
337 304 266 254 248 247 251 245 235 239 238 205 194 203 267 296 270 245 235 239 257 274 259 237 220 222 230 238 245 250 259 266 268 266 262 255 247 233 212 202 196 189 182
332 306 277 264 255 244 249 246 236 232 238 228 200 177 193 225 274 303 243 232 245 257 257 251 238 238 241 241 246 256 267 272 270 265 261 256 244 233 215 201 196 187 178
338 323 299 279 267 254 247 245 232 222 218 224 216 210 202 176 181 276 307 275 259 252 248 241 244 246 244 238 239 253 270 273 268 264 264 261 249 236 220 200 193 183 176
327 331 323 309 288 267 250 239 226 220 215 212 201 193 207 207 189 192 248 292 306 287 276 252 248 245 238 221 220 241 262 271 274 274 270 262 250 238 217 197 188 178 174
322 332 334 334 325 305 274 254 244 238 236 232 222 209 189 186 194 191 209 242 274 285 286 267 256 241 212 199 203 229 266 288 296 290 278 262 244 228 205 192 181 174 173
316 318 335 348 349 349 348 338 312 301 274 258 249 244 235 226 200 178 179 222 256 286 302 287 266 221 185 179 200 240 294 327 327 318 303 271 224 198 187 181 174 172 175
294 302 323 345 351 354 355 346 324 306 282 266 272 276 270 268 234 193 172 172 242 311 302 279 298 213 179 179 202 170 65 27 20 16 33 78 117 143 158 163 165 169 172
303 316 323 320 328 340 351 349 328 310 294 299 334 359 349 313 275 220 175 166 170 235 268 273 265 238 194 185 178 138 113 96 80 72 83 99 111 124 138 149 159 163 168
303 314 324 316 313 326 335 343 339 360 40 27 24 34 30 5 359 15 31 192 199 212 238 260 248 234 214 183 170 150 138 138 130 115 115 126 129 133 140 147 154 161 171
294 296 303 305 307 309 327 341 337 351 51 49 51 74 67 53 37 21 11 341 244 212 230 265 257 231 209 189 167 154 146 159 177 157 144 144 145 146 149 155 162 169 176
304 295 311 319 324 332 343 339 332 342 21 66 86 77 61 55 43 16 359 350 330 272 233 256 270 239 216 199 180 164 154 175 191 191 174 165 161 163 165 169 175 179 183
63 60 60 49 33 29 25 5 353 18 51 74 79 69 50 47 36 10 1 360 342 326 279 257 273 259 230 186 168 165 165 174 195 197 187 182 180 182 186 189 192 193 194
94 71 55 44 38 31 21 14 38 62 66 66 65 60 45 37 26 3 358 1 358 351 343 327 299 292 257 214 161 165 165 182 195 186 183 187 194 199 203 204 207 207 206
98 74 58 40 29 29 17 18 43 56 57 55 53 47 35 26 16 4 352 350 354 348 345 346 339 340 346 0 201 172 161 158 160 169 149 168 181 197 205 213 217 218 213
103 81 67 53 35 22 22 50 68 62 58 56 48 30 23 21 8 8 1 347 342 350 346 343 340 356 357 343 331 162 145 143 170 198 140 171 169 198 206 207 218 219 216
97 88 78 64 41 17 37 62 74 76 68 63 59 46 40 27 22 26 24 22 15 20 24 5 351 351 346 346 347 23 91 130 158 153 114 175 193 209 209 212 221 225 222
71 74 77 70 46 19 40 77 80 74 69 57 51 50 48 33 26 35 40 26 12 7 2 4 346 325 335 332 342 352 45 79 73 37 46 190 210 222 206 220 223 220 217
78 78 72 62 46 19 44 94 90 70 57 38 24 29 37 36 24 36 39 24 14 6 2 354 325 315 332 358 9 45 49 61 44 340 357 173 222 236 221 224 225 221 215
107 100 78 64 60 44 44 57 61 63 49 22 10 15 25 28 27 36 41 31 18 349 356 15 13 349 340 346 11 48 90 95 131 273 269 231 261 230 278 238 197 204 203
Height
1551 1552 1551 1551 1551 1551 1550 1549 1548 1548 1548 1547 1547 1546 1544 1544 1543 1542 1541 1541 1541 1541 1541 1541 1540 1540 1539 1537 1537 1537 1536 1535 1535 1535 1535 1536 1537 1537 1539 1542 1543 1544 1546
1550 1551 1550 1549 1549 1549 1548 1547 1546 1546 1545 1545 1544 1543 1542 1541 1540 1539 1538 1537 1537 1537 1537 1538 1537 1536 1535 1535 1534 1533 1532 1531 1530 1530 1530 1530 1531 1532 1534 1536 1538 1540 1542
1548 1549 1548 1548 1547 1547 1546 1545 1544 1543 1542 1541 1541 1541 1540 1539 1537 1536 1535 1534 1533 1533 1534 1534 1534 1533 1533 1532 1530 1529 1528 1527 1526 1525 1524 1524 1525 1526 1528 1530 1532 1535 1537
1546 1546 1545 1545 1545 1544 1543 1541 1541 1539 1538 1538 1537 1536 1536 1535 1534 1533 1532 1531 1531 1530 1531 1531 1531 1530 1529 1529 1527 1526 1525 1524 1522 1521 1520 1519 1520 1521 1522 1525 1527 1530 1532
1543 1543 1542 1542 1541 1540 1539 1538 1537 1536 1534 1533 1533 1532 1532 1531 1530 1529 1529 1528 1528 1528 1527 1527 1527 1527 1526 1525 1524 1523 1522 1520 1519 1517 1516 1515 1515 1516 1517 1520 1522 1525 1528
1539 1539 1538 1538 1537 1535 1534 1533 1532 1531 1529 1529 1528 1527 1527 1526 1526 1525 1525 1524 1524 1524 1524 1523 1523 1523 1522 1522 1521 1520 1518 1517 1515 1513 1511 1509 1509 1510 1512 1514 1517 1520 1523
1534 1533 1532 1532 1531 1529 1528 1527 1526 1525 1523 1524 1523 1521 1521 1521 1520 1520 1520 1520 1520 1520 1520 1520 1519 1519 1519 1518 1517 1516 1515 1513 1511 1509 1506 1505 1504 1505 1506 1508 1512 1515 1518
1529 1527 1526 1525 1524 1522 1521 1520 1519 1518 1517 1518 1517 1516 1516 1516 1515 1514 1514 1515 1515 1515 1516 1516 1516 1516 1515 1514 1513 1512 1510 1509 1506 1504 1501 1499 1499 1499 1501 1503 1506 1510 1513
1522 1521 1519 1517 1515 1514 1513 1512 1512 1510 1509 1510 1511 1512 1511 1509 1509 1509 1508 1509 1510 1510 1511 1512 1512 1512 1511 1510 1509 1508 1506 1504 1501 1498 1496 1494 1493 1494 1495 1498 1501 1504 1508
1516 1514 1511 1509 1507 1506 1505 1504 1504 1503 1503 1503 1504 1505 1506 1505 1505 1504 1504 1504 1505 1505 1506 1506 1507 1507 1507 1505 1504 1503 1502 1499 1496 1492 1489 1488 1487 1488 1490 1493 1496 1500 1503
1511 1509 1506 1503 1501 1499 1498 1497 1497 1496 1497 1497 1498 1498 1500 1500 1499 1499 1498 1499 1500 1500 1500 1501 1501 1502 1501 1501 1500 1499 1497 1494 1490 1486 1483 1482 1482 1483 1485 1488 1492 1497 1501
1507 1505 1503 1500 1497 1495 1493 1492 1491 1491 1492 1493 1493 1494 1495 1495 1494 1494 1493 1493 1495 1495 1495 1496 1496 1496 1496 1496 1495 1495 1493 1489 1484 1481 1478 1476 1476 1477 1480 1484 1489 1494 1499
1504 1502 1500 1498 1495 1493 1490 1488 1488 1487 1488 1489 1490 1491 1491 1492 1491 1491 1490 1490 1491 1491 1491 1492 1492 1492 1491 1491 1491 1490 1488 1484 1480 1477 1474 1472 1471 1473 1477 1482 1487 1492 1498
1502 1500 1499 1497 1495 1492 1489 1487 1487 1486 1486 1487 1487 1488 1488 1488 1488 1487 1486 1487 1488 1487 1487 1488 1488 1488 1488 1488 1488 1487 1484 1480 1477 1476 1473 1472 1470 1472 1476 1481 1486 1491 1497
1501 1499 1498 1496 1494 1492 1489 1487 1485 1484 1484 1485 1485 1485 1485 1485 1485 1484 1483 1485 1486 1485 1485 1485 1485 1485 1485 1485 1484 1483 1480 1477 1476 1476 1475 1474 1473 1474 1478 1483 1488 1491 1496
1500 1499 1497 1495 1493 1491 1489 1487 1485 1483 1482 1482 1483 1483 1483 1483 1483 1482 1481 1481 1483 1484 1483 1482 1482 1482 1481 1481 1481 1480 1478 1476 1476 1476 1475 1475 1476 1477 1480 1484 1488 1492 1497
1500 1498 1496 1494 1491 1489 1487 1486 1485 1483 1482 1482 1482 1482 1482 1481 1480 1480 1480 1480 1481 1480 1479 1479 1479 1478 1478 1478 1478 1477 1477 1476 1476 1476 1476 1477 1477 1479 1482 1486 1490 1494 1498
1499 1497 1495 1493 1490 1488 1486 1485 1484 1483 1482 1482 1482 1482 1481 1480 1479 1479 1478 1478 1477 1477 1476 1475 1474 1474 1474 1474 1474 1475 1476 1476 1477 1477 1478 1478 1480 1482 1485 1488 1491 1495 1499
1499 1497 1495 1493 1490 1488 1486 1485 1484 1483 1482 1482 1482 1482 1481 1479 1478 1477 1476 1475 1474 1473 1472 1471 1470 1471 1470 1470 1471 1472 1474 1475 1476 1478 1479 1480 1481 1483 1486 1489 1492 1495 1498
1499 1497 1495 1492 1490 1487 1486 1485 1485 1484 1483 1483 1482 1481 1480 1478 1477 1476 1475 1473 1471 1471 1470 1469 1468 1467 1466 1466 1467 1469 1471 1472 1474 1476 1478 1480 1481 1483 1485 1487 1490 1493 1495
1499 1498 1495 1493 1491 1489 1488 1487 1486 1485 1484 1483 1482 1482 1480 1479 1477 1476 1475 1473 1471 1471 1469 1468 1466 1465 1464 1463 1464 1465 1468 1470 1472 1474 1476 1477 1479 1481 1482 1484 1487 1489 1491
1500 1499 1497 1495 1493 1491 1489 1488 1487 1486 1485 1484 1484 1483 1481 1480 1478 1477 1476 1475 1473 1471 1469 1468 1467 1465 1463 1462 1461 1462 1464 1466 1469 1471 1473 1475 1476 1478 1479 1481 1483 1484 1486
1501 1499 1498 1497 1495 1493 1492 1490 1489 1488 1487 1486 1486 1485 1483 1482 1481 1480 1479 1477 1475 1473 1471 1469 1468 1466 1464 1462 1461 1461 1462 1463 1466 1468 1470 1471 1473 1474 1476 1477 1479 1480 1481
1501 1500 1499 1498 1497 1495 1494 1493 1492 1491 1490 1489 1488 1487 1486 1485 1483 1482 1481 1479 1477 1475 1473 1471 1470 1468 1466 1464 1464 1463 1462 1462 1464 1465 1467 1468 1470 1471 1472 1472 1473 1475 1476
1500 1500 1500 1499 1498 1497 1496 1495 1495 1494 1493 1492 1491 1490 1489 1487 1486 1484 1482 1480 1479 1477 1476 1474 1473 1471 1470 1468 1466 1465 1464 1464 1464 1465 1465 1466 1466 1466 1467 1468 1468 1469 1471
1500 1500 1500 1500 1500 1499 1498 1497 1496 1496 1495 1494 1493 1492 1490 1489 1488 1486 1484 1482 1481 1479 1477 1476 1475 1474 1473 1471 1468 1467 1466 1466 1465 1465 1464 1463 1463 1462 1463 1463 1463 1464 1465